STARLINK-5091 (54873 NORAD) Tracking and Keplerian Element Data

This shows tracking and keplerian element data for the satellite.

Feedback or suggestion? Click here.




ElementValue
Catalog54873
NameSTARLINK-5091
Epoch Orbit130
Epoch Day13.91667824
Epoch Year2023
RAAN275.2197
Inclination42.9971
Eccentricity0.0001776
Argument of Perigee264.5656
Mean Anonmoly162.8941
Mean Motion15.71364312
Decay Rate-0.00027044
L11 54873U 22177BF 23013.91667824 -.00027044 00000+0 -20337-3 0 9994
L22 54873 42.9971 275.2197 0001776 264.5656 162.8941 15.71364312 1307



Live tracking and technical data element details for STARLINK-5091 (NORAD 54873). STARLINK-5091 can be tracked NOW for your location showing map with azimuth and elevation plus other details from your city location.







IsCatalogInMostPopularTable: catalog: 54873, numindb: 18
Update: records affected: 1



GetName: 54873 STARLINK-5091

Hit Count: updated at: Tue, 07 Feb 2023 14:48:30 GMT